Location: Goettingen
(51.5300°N, 9.9433°E)
Time: 10:04:43
(UTC+02:00)

ISS - Pass Details

Date: 16 May 2025
Orbit: 416 x 419 km, 51.6° (Epoch: 18 May)

Event Time Altitude Azimuth Distance (km) Brightness Sun altitude
Rises 23:01:35 0° 276° (W) 2,361 0.7 -13.2°
Reaches altitude 10° 23:03:40 10° 276° (W) 1,497 -0.4 -13.4°
Maximum altitude 23:07:02 88° 197° (SSW) 423 -3.8 -13.7°
Enters shadow 23:09:36 16° 99° (E) 1,174 -1.9 -13.9°
